Find Starlink 32356

NORAD ID: 60921 Int'l Des: 2024-154 Owner: SPXS Country: US Constellation: starlink operational
LEOCIRCULAR

当前视图

正在加载3D地球...

关于 Starlink 32356

正在加载描述...

即将过境

Passes for default location (London). Set your location on the main map for personalized predictions.

高度历史

Loading altitude history...

两行轨道根数

1 60921U 24154U 26150.83335647 .00031772 00000-0 10322-2 0 9997
2 60921 53.1608 262.1557 0001444 99.9924 252.7232 15.31670056 5851
Epoch: May 30, 2026 • Age: 5 hours

当前状态

高度 476.4 km
速度 7.63 km/s
星下点 53.10°N, 78.87°E
发射日期 Aug 31, 2024
运行时间 1.7 years
类型 internet

技术详情

分类 Payload
质量 730.00 kg
干质量 700.00 kg
总质量 730.00 kg
长度 0.30 m
直径 4.10 m
跨度 29.00 m
形状 Box + pan
制造商 SPXS
平台类型 Starlink V2M
阶段状态 In Orbit
所有者/国家 SPXS/US

Most Searched